Location: Dompnac
(44.5644°N, 4.1026°E)
Time: 05:48:57
(UTC+00:00)

NOSS 2-2 (E) - Pass Details

Date: 26 January 2021
Orbit: 462 x 1744 km, 63.3° (Epoch: 05 March)

Event Time Altitude Azimuth Distance (km) Brightness Sun altitude
Rises 21:07:07 0° 313° (NW) 3,359 8.0 -46.2°
Reaches altitude 10° 21:09:28 10° 305° (NW) 2,591 7.3 -46.6°
Enters shadow 21:10:29 15° 299° (WNW) 2,295 6.9 -46.8°
